STARLINK-2329 (47873 NORAD) Tracking and Keplerian Element Data

This shows tracking and keplerian element data for the satellite.

Feedback or suggestion? Click here.




ElementValue
Catalog47873
NameSTARLINK-2329
Epoch Orbit198
Epoch Day173.91668981
Epoch Year2021
RAAN78.5654
Inclination53.0483
Eccentricity0.0002223
Argument of Perigee23.5229
Mean Anonmoly195.3642
Mean Motion15.73212889
Decay Rate-5E-08
L11 47873U 21021P 21173.91668981 -.00000005 00000-0 43942-5 0 9990
L22 47873 53.0483 78.5654 0002223 23.5229 195.3642 15.73212889 1985

Live tracking and technical data element details for STARLINK-2329 (NORAD 47873). STARLINK-2329 can be tracked NOW for your location showing map with azimuth and elevation plus other details from your city location.

Track the satellite on the map from your city or location and see movement details for azimuth, elevation, latitude, longitude, range, height, and movement on the map or in text.







IsCatalogInMostPopularTable: catalog: 47873, numindb: 48
Update: records affected: 1



GetName: 47873 STARLINK-2329

Hit Count: updated at: Thu, 24 Jun 2021 02:11:39 GMT